Regional Weather Roundup
Issued by NWS

Home | Current Version | Previous Version | Text Only | Print | Product List | Glossary Off
Versions: 1 2 3 4 5 6 7 8 9 10 11 12 13 14 15 16 17 18 19 20 21 22 23 24 25 26 27 28 29 30 31 32 33 34 35 36 37 38 39 40 41 42 43 44 45 46 47 48 49 50

000
ASUS43 KMKX 262300
RWRWI

WISCONSIN REGIONAL WEATHER ROUNDUP
NATIONAL WEATHER SERVICE MILWAUKEE/SULLIVAN WI
600 PM CDT SUN APR 26 2015

NOTE: "FAIR" INDICATES FEW OR NO CLOUDS BELOW 12,000 FEET WITH NO
SIGNIFICANT WEATHER AND/OR OBSTRUCTIONS TO VISIBILITY.

WIZ001-002-006>008-014>016-023>028-270000-
NORTHWEST WISCONSIN

CITY           SKY/WX    TMP DP  RH WIND       PRES   REMARKS
SUPERIOR ARPT  SUNNY     44  29  55 E10       30.16S
ASHLAND        SUNNY     50  28  42 NE9       30.17F
HAYWARD        SUNNY     54  23  30 N20       30.13R
SIREN          SUNNY     61  20  20 NE14      30.10S
CUMBERLAND     SUNNY     59  19  21 NE12G17   30.08S
RICE LAKE      SUNNY     60  21  22 N14G21    30.09S
CHETEK         SUNNY     60  24  25 NW8G17    30.07S
LADYSMITH      SUNNY     58  23  26 N14G22    30.10R
EAU CLAIRE     SUNNY     63  21  20 NE10      30.05S
MENOMONIE      SUNNY     63  20  19 N13G18    30.06S
NEW RICHMOND   SUNNY     61  16  17 NE6       30.09R
OSCEOLA        SUNNY     63  24  23 N7        30.11S
$$

WIZ003>005-009-010-017-018-270000-
NORTH CENTRAL WISCONSIN

CITY           SKY/WX    TMP DP  RH WIND       PRES   REMARKS
MANITOWISH WTR SUNNY     51  26  39 NE8       30.10S
ARBOR VITAE    SUNNY     54  26  33 NE9G18    30.08S
WOODRUFF       SUNNY     54  26  33 NE9G18    30.08S
RHINELANDER    SUNNY     54  24  31 VRB7G17   30.07R
EAGLE RIVER    SUNNY     52  25  34 N12       30.07R
LAND O LAKES   SUNNY     51  28  40 N14G20    30.10R
PHILLIPS       SUNNY     53  27  36 N10G18    30.09R
TOMAHAWK       SUNNY     56  24  28 N13G20    30.06S
MEDFORD        SUNNY     58  22  25 N12G22    30.04S
MERRILL        SUNNY     59  24  26 N12G24    30.03S
$$

WIZ029-030-035-036-043>047-270000-
CENTRAL WISCONSIN

CITY           SKY/WX    TMP DP  RH WIND       PRES   REMARKS
WAUSAU         SUNNY     61  21  21 NE10      30.00F
MOSINEE        SUNNY     61  19  20 N10G17    30.03S
MARSHFIELD     SUNNY     62  22  21 N15G21    30.02S
STEVENS POINT  SUNNY     60  19  21 N8G20     30.01S
WAUPACA        SUNNY     65  16  15 N7        29.99F
WAUTOMA        NOT AVBL
WISC RAPIDS    SUNNY     62  18  18 N9        30.02F
CAMP DOUGLAS   NOT AVBL
$$

WIZ011>013-019>022-031-037>040-048>050-270000-
NORTHEAST WISCONSIN

CITY           SKY/WX    TMP DP  RH WIND       PRES   REMARKS
ANTIGO         SUNNY     56  27  31 N13G18    30.03S
SHAWANO        SUNNY     60  28  29 E12       30.02R
OCONTO         SUNNY     50  33  52 E8        30.03S
STURGEON BAY   SUNNY     54  28  37 N14       30.05S
GREEN BAY      SUNNY     56  31  38 NE13      30.03R
MANITOWOC      NOT AVBL
APPLETON       MOSUNNY   59  21  23 NE12G18   30.01R
CLINTONVILLE   SUNNY     59  27  29 E12       30.01R
OSHKOSH        SUNNY     58  26  29 E7        29.99F
$$

WIZ032>034-041-042-053>061-270000-
SOUTHWEST WISCONSIN

CITY           SKY/WX    TMP DP  RH WIND       PRES   REMARKS
LA CROSSE      SUNNY     65  24  21 N8        30.03S
SPARTA         SUNNY     62  20  19 N13       30.04S
VIROQUA        SUNNY     60  24  25 N8        30.03S
BOSCOBEL       SUNNY     63  25  23 VRB5      30.02S
PRAIRIE DU CHI SUNNY     62  23  22 NE9       30.02S
PLATTEVILLE    SUNNY     59  29  31 NE8       30.02S
$$

WIZ056-057-062-063-064-067-068-270000-
SOUTH CENTRAL WISCONSIN

CITY           SKY/WX    TMP DP  RH WIND       PRES   REMARKS
REEDSBURG      SUNNY     60  24  25 NE9       30.01S
BARABOO/DELLS  SUNNY     60  21  21 W6        30.01F
LONE ROCK      NOT AVBL
MINERAL POINT  SUNNY     61  21  21 N10G17    30.01S
MADISON        MOSUNNY   60  25  26 NE12      30.00F
MIDDLETON      SUNNY     61  23  23 N8        30.02S
WATERTOWN      SUNNY     58  26  29 N7        30.00F
MONROE         SUNNY     57  28  33 N7G17     30.00F
JANESVILLE     SUNNY     61  23  23 N12G17    30.00S
$$

WIZ051-052-058>065-066-070>072-270000-
SOUTHEAST WISCONSIN

CITY           SKY/WX    TMP DP  RH WIND       PRES   REMARKS
MILWAUKEE      SUNNY     47  27  45 NE10      30.04S
WAUKESHA       SUNNY     50  25  37 E12       30.03
MILWAUKEE/TIMM SUNNY     52  19  28 NE12G17   30.03S
RACINE         SUNNY     47  27  45 N8        30.04S
BURLINGTON     SUNNY     53  26  35 E12       30.01R
KENOSHA        SUNNY     51  25  36 NE15      30.02R
FOND DU LAC    SUNNY     58  24  27 E6        30.00F
SHEBOYGAN      MOSUNNY   47  27  45 NE13      30.03S
WEST BEND      SUNNY     52  27  37 E8        30.02S
JUNEAU         SUNNY     57  26  30 NE6       30.02S
$$

LSZ147-162-270000-
LAKE SUPERIOR

STATION/POSITION TIME  TEMP    WIND        PRES    WAVE
                       AIR SEA DIR/SP/G            HT/PER
                 (UTC) (F)     (DEG/KT/KT) (MB)    (FT/S)
W MID LAKE BUOY  2150   36 35  280/  6/  6 1023.3F   1
DEVILS ISLAND    2200   38     100/  5/  6 1022.7F
PORT WING        2200   40      10/ 10/ 13 1021.7
SAXON HARBOR     2200   40      CALM  /  2 1021.7F
$$

LMZ867-665-643>646-270000-
LAKE MICHIGAN

STATION/POSITION TIME  TEMP    WIND        PRES    WAVE
                       AIR SEA DIR/SP/G            HT/PER
                 (UTC) (F)     (DEG/KT/KT) (MB)    (FT/S)
CHAMBERS ISLAND  2200   44      30/ 15/ 16 1017.3S
NORTHPORT PIER   2200   46      10/ 14/ 18 1017.3S
KEWAUNEE LAKESHO 2200   45      50/  1/  5 1016.5S
SHEBOYGAN LAKESH 2200   42      30/  7/  8 1017.7S
PORT WASHINGTON  2200   45      40/  8/ 12 1017.6S
MILWAUKEE LAKESH 2200   42      30/ 12/ 14   N/A
KENOSHA   LAKESH 2200   43      20/ 11/ 14 1016.6S
$$

TC  - TEMPERATURE IN CELSIUS
VSB - VISIBILITY IN STATUTE MILES
WCI - WIND CHILL INDEX
HX  - HEAT INDEX



USA.gov is the U.S. government's official web portal to all federal, state and local government web resources and services.